Overview Statistics Trail Chart Weather Telemetry Raw packets
 

This is the latest recevied weather packets stored in our database for station/object KJ5FA-9. If no packets are shown the sender has not sent any weather packets the latest 10 day(s).

<< 1 2 3 4 5 6 >>
Time Temp. Humidity Pressure Rain* Wind** Luminosity Snow
1788437074 22.78° C 94% 1017.6 hPa 0 mm - - -
1788435574 22.78° C 93% 1017.3 hPa 0 mm - - -
1788434074 23.33° C 92% 1017.1 hPa 0 mm - - -
1788432574 23.33° C 91% 1016.6 hPa 0 mm - - -
1788431074 23.33° C 91% 1016.6 hPa 0 mm - - -
1788429573 23.33° C 91% 1016.5 hPa 0 mm - - -
1788428073 23.89° C 90% 1016.3 hPa 0 mm - - -
1788426573 23.89° C 89% 1016.3 hPa 0 mm - - -
1788425073 24.44° C 88% 1016.1 hPa 0 mm - - -
1788423575 24.44° C 86% 1016 hPa 0 mm - - -
1788422074 25° C 85% 1016.1 hPa 0 mm - - -
1788420573 25° C 84% 1016.2 hPa 0 mm - - -
1788419074 25° C 83% 1016.3 hPa 0 mm - - -
1788417575 25.56° C 81% 1016.3 hPa 0 mm - - -
1788416073 25.56° C 80% 1016.2 hPa 0 mm - - -
1788414573 26.11° C 78% 1016.4 hPa 0 mm - - -
1788413073 26.67° C 77% 1016 hPa 0 mm - - -
1788411573 27.22° C 75% 1015.7 hPa 0 mm - - -
1788410073 27.22° C 72% 1016 hPa 0 mm - - -
1788408573 27.78° C 70% 1016.2 hPa 0 mm - - -
1788407073 28.89° C 66% 1016.3 hPa 0 mm - - -
1788405575 29.44° C 64% 1015.9 hPa 0 mm - - -
1788404073 30° C 59% 1015.8 hPa 0 mm - - -
1788402573 30.56° C 59% 1015.4 hPa 0 mm - - -
1788401073 30.56° C 57% 1015.3 hPa 0 mm - - -

* Rain latest hour (hover to see other rain measurements)
** Current wind speed in m/s (hover to see current wind gust speed)